06.05.2024;04:00;12
06.05.2024;03:00;10
06.05.2024;02:00;15
06.05.2024;01:00;18
06.05.2024;00:00;25
05.05.2024;23:00;29
05.05.2024;22:00;31
05.05.2024;21:00;38
05.05.2024;20:00;5
05.05.2024;19:00;3
05.05.2024;18:00;2
05.05.2024;17:00;2
05.05.2024;16:00;2
05.05.2024;15:00;3
05.05.2024;14:00;6
05.05.2024;13:00;6
05.05.2024;12:00;3
05.05.2024;11:00;2
05.05.2024;10:00;2
05.05.2024;09:00;5
05.05.2024;08:00;9
05.05.2024;07:00;2
05.05.2024;06:00;6
05.05.2024;05:00;4
05.05.2024;04:00;4
05.05.2024;03:00;3
05.05.2024;02:00;5
05.05.2024;01:00;10
05.05.2024;00:00;10
04.05.2024;23:00;26
04.05.2024;22:00;7
04.05.2024;21:00;10
04.05.2024;20:00;5
04.05.2024;19:00;3
04.05.2024;18:00;2
04.05.2024;17:00;2
04.05.2024;16:00;3
04.05.2024;15:00;3
04.05.2024;14:00;3
04.05.2024;13:00;7
04.05.2024;12:00;15
04.05.2024;11:00;18
04.05.2024;10:00;14
04.05.2024;09:00;12
04.05.2024;08:00;14
04.05.2024;07:00;19
04.05.2024;06:00;18
04.05.2024;05:00;19
